EW0734 Weather Reports


time (UTC)temp
C
wind
direction
speed
KPH
gust
KPH
rain 1hr
cm
rain 24hr
cm
rain mn
cm
humidity
%
barometer
mb
20260507001025 20 0.0 1.6 0.00 0.00 0.00 83 1007.4
20260507000025 20 0.0 0.0 0.00 0.00 0.00 82 1007.3
20260506235025 20 0.0 1.6 0.00 0.00 0.00 81 1007.1
20260506234045 20 0.0 1.6 0.00 0.00 0.00 81 1006.9
20260506233026 20 0.0 1.6 0.00 0.00 0.00 81 1006.6
20260506232025 21 0.0 1.6 0.00 0.00 0.00 80 1006.7
20260506231025 21 0.0 3.2 0.00 0.00 0.00 80 1006.8
20260506230045 21 0.0 6.4 0.00 0.00 0.00 79 1006.8
20260506225026 21 0.0 3.2 0.00 0.00 0.00 79 1006.9
20260506224025 21 0.0 4.8 0.00 0.00 0.00 78 1006.7
20260506223024 21 0.0 6.4 0.00 0.00 0.00 77 1006.8
20260506222025 21 68 1.6 6.4 0.00 0.00 0.00 76 1006.9
20260506221025 21 0.0 1.6 0.00 0.00 0.00 77 1006.7
20260506220044 21 68 1.6 8.0 0.00 0.00 0.00 76 1006.8
20260506215025 21 68 1.6 17.7 0.00 0.00 0.00 76 1006.6
20260506214025 22 68 1.6 6.4 0.00 0.00 0.00 76 1006.7
20260506213024 22 0.0 1.6 0.00 0.00 0.00 76 1006.9
20260506212026 21 0.0 4.8 0.00 0.00 0.00 77 1006.7
20260506211024 21 0.0 4.8 0.00 0.00 0.00 77 1006.8
20260506210024 21 0.0 4.8 0.00 0.00 0.00 77 1006.8
20260506205025 21 68 1.6 8.0 0.00 0.00 0.00 77 1006.7
20260506204025 21 68 1.6 4.8 0.00 0.00 0.00 79 1006.8
20260506203046 21 68 1.6 4.8 0.00 0.00 0.00 79 1006.9
20260506202024 20 68 1.6 9.7 0.00 0.00 0.00 79 1006.8
20260506201025 20 90 1.6 8.0 0.00 0.00 0.00 80 1006.9
20260506200025 20 90 1.6 4.8 0.00 0.00 0.00 82 1006.9
20260506195025 19 0.0 4.8 0.00 0.00 0.00 82 1006.8
20260506194025 19 68 1.6 11.3 0.00 0.00 0.00 82 1007.1
20260506193025 19 68 1.6 8.0 0.00 0.00 0.00 82 1006.9
20260506192025 19 68 1.6 6.4 0.00 0.00 0.00 82 1007.4
20260506191024 19 0.0 11.3 0.00 0.00 0.00 83 1007.6
20260506190025 19 68 1.6 6.4 0.00 0.00 0.00 83 1007.8
20260506185024 19 68 1.6 6.4 0.00 0.00 0.00 83 1008.0
20260506184044 19 68 1.6 8.0 0.00 0.00 0.00 83 1007.9
20260506183025 19 68 1.6 8.0 0.00 0.00 0.00 83 1007.8
20260506182024 18 0.0 6.4 0.00 0.00 0.00 84 1008.2
20260506181024 18 0.0 1.6 0.00 0.00 0.00 84 1008.1
20260506180025 18 0.0 8.0 0.00 0.00 0.00 84 1008.0
20260506175024 18 68 1.6 11.3 0.00 0.00 0.00 84 1008.1
20260506174045 18 68 1.6 6.4 0.00 0.00 0.00 85 1008.3
20260506173025 18 0.0 4.8 0.00 0.00 0.00 85 1008.3
20260506172024 18 68 1.6 8.0 0.00 0.00 0.00 85 1008.3
20260506171045 18 0.0 11.3 0.00 0.00 0.00 85 1008.3
20260506170024 18 0.0 4.8 0.00 0.00 0.00 85 1008.4
20260506165024 18 90 1.6 8.0 0.00 0.00 0.00 85 1008.5
20260506164024 17 68 1.6 8.0 0.00 0.00 0.00 85 1008.8
20260506163024 17 68 1.6 9.7 0.00 0.00 0.00 80 1008.8
20260506162024 17 0.0 3.2 0.00 0.00 0.00 69 1009.3
20260506161024 17 0.0 6.4 0.00 0.00 0.00 67 1009.1
20260506160024 17 0.0 4.8 0.00 0.00 0.00 73 1008.8
20260506155030 17 0.0 1.6 0.00 0.00 0.00 61 1008.9
20260506154025 16 0.0 3.2 0.00 0.00 0.00 60 1009.0
20260506153024 16 0.0 1.6 0.00 0.00 0.00 57 1009.0
20260506152024 16 0.0 3.2 0.00 0.00 0.00 66 1008.8
20260506151024 16 0.0 4.8 0.00 0.00 0.00 70 1008.8
20260506150024 16 0.0 3.2 0.00 0.00 0.00 73 1009.0
20260506145025 16 0.0 4.8 0.00 0.00 0.00 74 1009.3
20260506144024 16 0.0 3.2 0.00 0.00 0.00 78 1009.6
20260506143024 16 0.0 4.8 0.00 0.00 0.00 80 1009.6
20260506142025 16 0.0 3.2 0.00 0.00 0.00 83 1009.4
20260506141044 16 0.0 3.2 0.00 0.00 0.00 83 1009.3
20260506140024 16 0.0 1.6 0.00 0.00 0.00 83 1009.3
20260506135024 16 0.0 3.2 0.00 0.00 0.00 85 1009.1
20260506134044 16 0.0 1.6 0.00 0.00 0.00 85 1009.2
20260506133026 16 0.0 6.4 0.00 0.00 0.00 84 1009.3
20260506132026 17 0.0 1.6 0.00 0.00 0.00 83 1009.3
20260506131024 17 0.0 3.2 0.00 0.00 0.00 82 1009.5
20260506130026 17 0.0 9.7 0.00 0.00 0.00 81 1009.3
20260506125024 17 68 1.6 9.7 0.00 0.00 0.00 80 1009.3
20260506124026 17 0.0 1.6 0.00 0.00 0.00 78 1009.2
20260506123026 17 68 1.6 9.7 0.00 0.00 0.00 76 1009.0
20260506122026 18 0.0 3.2 0.00 0.00 0.00 76 1009.0
20260506121026 18 0.0 1.6 0.00 0.00 0.00 75 1009.0
20260506120027 18 68 1.6 9.7 0.00 0.00 0.00 74 1009.3
20260506115026 18 0.0 4.8 0.00 0.00 0.00 75 1009.2
20260506114028 18 0.0 4.8 0.00 0.00 0.00 74 1009.3
20260506113027 18 90 1.6 6.4 0.00 0.00 0.00 74 1009.2
20260506112026 18 0.0 4.8 0.00 0.00 0.00 74 1009.1
20260506111026 18 0.0 4.8 0.00 0.00 0.00 74 1009.0
20260506110045 -17 0.0 0.0 0.00 0.00 0.00
20260506105025 -17 0.0 0.0 0.00 0.00 0.00
20260506104544 -17 0.0 0.0 0.00 0.00 0.00
20260506104039 -17 0.0 0.0 0.00 0.00 0.00
20260506103525 -17 0.0 0.0 0.00 0.00 0.00
20260506102525 -17 0.0 0.0 0.00 0.00 0.00
20260506102023 -17 0.0 0.0 0.00 0.00 0.00
20260506101620 -17 0.0 0.0 0.00 0.00 0.00
20260506101025 -17 0.0 0.0 0.00 0.00 0.00
20260506100025 -17 0.0 0.0 0.00 0.00 0.00
20260506095544 -17 0.0 0.0 0.00 0.00 0.00
20260506095021 -17 0.0 0.0 0.00 0.00 0.00
20260506094025 -17 0.0 0.0 0.00 0.00 0.00
20260506093102 -17 0.0 0.0 0.00 0.00 0.00
20260506092540 -17 0.0 0.0 0.00 0.00 0.00
20260506092025 -17 0.0 0.0 0.00 0.00 0.00
20260506091024 -17 0.0 0.0 0.00 0.00 0.00
20260506090606 -17 0.0 0.0 0.00 0.00 0.00
20260506090025 -17 0.0 0.0 0.00 0.00 0.00
20260506085525 -17 0.0 0.0 0.00 0.00 0.00
20260506084545 -17 0.0 0.0 0.00 0.00 0.00
20260506084036 -17 0.0 0.0 0.00 0.00 0.00 72
20260506083611 17 135 1.6 4.8 0.00 0.00 0.00 72 1009.0
20260506082526 18 0.0 3.2 0.00 0.00 0.00 72 1009.1
20260506081526 18 0.0 4.8 0.00 0.00 0.00 71 1009.1
20260506080546 18 135 1.6 8.0 0.00 0.00 0.00 71 1009.1
20260506073527 18 0.0 4.8 0.00 0.00 0.00 69 1009.1
20260506072531 19 0.0 4.8 0.00 0.00 0.00 69 1009.0
20260506071525 19 135 1.6 8.0 0.00 0.00 0.00 68 1009.1
20260506070545 19 0.0 1.6 0.00 0.00 0.00 68 1009.2
20260506061526 20 135 1.6 6.4 0.00 0.00 0.00 64 1009.4
20260506060525 20 0.0 1.6 0.00 0.00 0.00 63 1009.5
20260506050526 21 0.0 4.8 0.00 0.00 0.00 59 1009.6
20260506044545 21 90 3.2 17.7 0.00 0.00 0.00 58 1009.7
20260506043526 21 0.0 3.2 0.00 0.00 0.00 58 1009.7
20260506042525 21 0.0 3.2 0.00 0.00 0.00 57 1009.6
20260506041525 22 68 1.6 9.7 0.00 0.00 0.00 56 1009.7
20260506040556 22 90 1.6 12.9 0.00 0.00 0.00 56 1009.8
20260506035525 22 90 1.6 8.0 0.00 0.00 0.00 56 1009.8
20260506034525 22 158 1.6 4.8 0.00 0.00 0.00 55 1009.7
20260506033525 21 0.0 4.8 0.00 0.00 0.00 55 1009.6
20260506032525 21 0.0 3.2 0.00 0.00 0.00 55 1009.6
20260506031525 21 0.0 6.4 0.00 0.00 0.00 55 1009.8
20260506030525 21 180 1.6 11.3 0.00 0.00 0.00 55 1009.7
20260506025525 21 0.0 6.4 0.00 0.00 0.00 55 1009.8
20260506024525 21 180 1.6 8.0 0.00 0.00 0.00 54 1009.8
20260506023525 21 0.0 3.2 0.00 0.00 0.00 53 1010.0
20260506022525 22 0.0 3.2 0.00 0.00 0.00 53 1010.0
20260506021525 22 0.0 1.6 0.00 0.00 0.00 52 1010.0
20260506020527 22 0.0 6.4 0.00 0.00 0.00 51 1010.0
20260506015526 22 0.0 0.0 0.00 0.00 0.00 51 1010.0
20260506014525 22 0.0 0.0 0.00 0.00 0.00 49 1009.8
20260506013526 22 0.0 3.2 0.00 0.00 0.00 48 1009.8
20260506012525 23 0.0 0.0 0.00 0.00 0.00 46 1009.7
20260506011525 23 0.0 6.4 0.00 0.00 0.00 45 1009.5
20260506010546 23 0.0 8.0 0.00 0.00 0.00 44 1009.4
20260506005526 23 0.0 6.4 0.00 0.00 0.00 44 1009.4
20260506004526 23 0.0 4.8 0.00 0.00 0.00 43 1009.1
20260506003524 24 0.0 4.8 0.00 0.00 0.00 42 1009.1
20260506002526 24 0.0 3.2 0.00 0.00 0.00 42 1009.0